KAR2013 UUEE-URSS

Flight info

Callsign KAR2013
Flight time N/A
Altitude 39000
Route TOGMO M56 ABAGI B105 NIMTA/K0906F400 B105 NATIT/K0900F390 DCT MOLED DCT SL DCT LIDUS/K0900F410 G242 ZG/K0891F400 DCT OBBUD DCT AMKOL DCT GOTIK DCT MEMZA DCT VENFO DCT BINOL
Aircraft B772/H-SDE2E3FGHIJ5LORVWXY/LB1D1

Departure

Time 2026-05-01 12:54
Airport Sheremetyevo International Airport (UUEE)

Arrival

Time N/A
Airport Sochi International Airport (URSS)
Time Latitude Longitude Altitude Speed Heading
2026-05-01 12:02 55.97759 37.40665 644 ft 0 kts 345°
2026-05-01 12:36 55.97755 37.40666 644 ft 1 kts 345°
2026-05-01 12:36 55.97746 37.40670 644 ft 2 kts 343°
2026-05-01 12:37 55.97734 37.40683 644 ft 2 kts 310°
2026-05-01 12:37 55.97726 37.40705 644 ft 2 kts 284°
2026-05-01 12:37 55.97725 37.40731 644 ft 1 kts 257°
2026-05-01 12:37 55.97726 37.40740 644 ft 0 kts 253°
2026-05-01 12:43 55.97716 37.40669 644 ft 11 kts 255°
2026-05-01 12:43 55.97623 37.40616 644 ft 20 kts 150°
2026-05-01 12:44 55.97606 37.40818 644 ft 17 kts 76°
2026-05-01 12:44 55.97628 37.40965 644 ft 8 kts 74°
2026-05-01 12:44 55.97557 37.41210 644 ft 15 kts 113°
2026-05-01 12:45 55.97588 37.41541 644 ft 7 kts 75°
2026-05-01 12:45 55.97611 37.41695 644 ft 17 kts 75°
2026-05-01 12:45 55.97644 37.41915 644 ft 9 kts 75°
2026-05-01 12:46 55.97670 37.42092 644 ft 20 kts 74°
2026-05-01 12:46 55.97713 37.42379 644 ft 28 kts 74°
2026-05-01 12:46 55.97749 37.42621 644 ft 14 kts 75°
2026-05-01 12:46 55.97785 37.42854 644 ft 23 kts 73°
2026-05-01 12:47 55.97834 37.43183 644 ft 31 kts 73°
2026-05-01 12:47 55.97844 37.43244 644 ft 32 kts 76°
2026-05-01 12:48 55.97850 37.43297 644 ft 33 kts 77°
2026-05-01 12:48 55.97886 37.43547 644 ft 38 kts 75°
2026-05-01 12:50 55.97908 37.43701 644 ft 12 kts 74°
2026-05-01 12:50 55.97935 37.43858 644 ft 12 kts 73°
2026-05-01 12:51 55.97948 37.43954 644 ft 12 kts 85°
2026-05-01 12:51 55.97925 37.44028 644 ft 0 kts 160°
2026-05-01 12:52 55.97900 37.44043 644 ft 9 kts 162°
2026-05-01 12:53 55.97771 37.43960 644 ft 0 kts 255°
2026-05-01 12:53 55.97769 37.43948 644 ft 5 kts 256°
2026-05-01 12:53 55.97744 37.43769 644 ft 28 kts 254°
2026-05-01 12:54 55.97609 37.42853 644 ft 123 kts 255°
2026-05-01 12:54 55.96956 37.38783 1933 ft 181 kts 258°
2026-05-01 12:54 55.96649 37.36688 2492 ft 181 kts 257°
2026-05-01 12:55 55.95144 37.32418 3125 ft 221 kts 236°
2026-05-01 12:55 55.94190 37.30117 3357 ft 242 kts 236°
2026-05-01 12:55 55.93171 37.27668 3553 ft 260 kts 236°
2026-05-01 12:56 55.92260 37.25488 4087 ft 259 kts 236°
2026-05-01 12:56 55.91113 37.22752 4786 ft 257 kts 236°
2026-05-01 12:56 55.90190 37.20547 5252 ft 259 kts 235°
2026-05-01 12:56 55.89194 37.18109 5748 ft 260 kts 241°
2026-05-01 12:57 55.88184 37.14357 6430 ft 260 kts 248°
2026-05-01 12:57 55.86814 37.08581 6990 ft 262 kts 252°
2026-05-01 12:57 55.86578 37.05372 6995 ft 262 kts 275°
2026-05-01 12:58 55.86951 37.02115 7448 ft 265 kts 285°
2026-05-01 12:58 55.87431 36.98996 7918 ft 265 kts 286°
2026-05-01 12:58 55.87945 36.95825 8004 ft 269 kts 286°
2026-05-01 12:59 55.89010 36.89328 9177 ft 266 kts 286°
2026-05-01 12:59 55.89528 36.86149 9631 ft 269 kts 286°
2026-05-01 12:59 55.90575 36.79581 10261 ft 284 kts 283°
2026-05-01 13:00 55.90695 36.72122 10286 ft 316 kts 262°
2026-05-01 13:00 55.90190 36.68202 10288 ft 329 kts 257°
2026-05-01 13:01 55.88441 36.60276 10292 ft 351 kts 240°
2026-05-01 13:01 55.86989 36.56775 10440 ft 356 kts 230°
2026-05-01 13:01 55.82934 36.51237 10961 ft 363 kts 209°
2026-05-01 13:02 55.80575 36.49585 11177 ft 368 kts 199°
2026-05-01 13:07 55.40152 37.18044 19860 ft 437 kts 149°
2026-05-01 13:07 55.37521 37.20733 20299 ft 441 kts 150°
2026-05-01 13:07 55.34808 37.23443 20755 ft 444 kts 150°
2026-05-01 13:08 55.32113 37.26125 21211 ft 447 kts 150°
2026-05-01 13:08 55.29404 37.28815 21659 ft 450 kts 150°
2026-05-01 13:08 55.26673 37.31522 22093 ft 453 kts 150°
2026-05-01 13:08 55.24050 37.34592 22507 ft 457 kts 141°
2026-05-01 13:09 55.21703 37.38449 22929 ft 460 kts 131°
2026-05-01 13:09 55.19768 37.42882 23365 ft 461 kts 121°
2026-05-01 13:09 55.18174 37.47797 23800 ft 463 kts 116°
2026-05-01 13:09 55.16648 37.52834 24247 ft 466 kts 116°
2026-05-01 13:10 55.15122 37.57866 24689 ft 469 kts 116°
2026-05-01 13:10 55.13688 37.63059 25098 ft 471 kts 109°
2026-05-01 13:10 55.12729 37.68530 25492 ft 471 kts 100°
2026-05-01 13:10 55.12124 37.74123 25893 ft 474 kts 97°
2026-05-01 13:11 55.11556 37.79845 26334 ft 476 kts 98°
2026-05-01 13:11 55.10739 37.85455 26737 ft 482 kts 107°
2026-05-01 13:11 55.09394 37.90899 27140 ft 488 kts 116°
2026-05-01 13:11 55.07594 37.95876 27525 ft 493 kts 125°
2026-05-01 13:12 55.05319 38.00480 27943 ft 497 kts 132°
2026-05-01 13:12 55.02901 38.04840 28351 ft 500 kts 133°
2026-05-01 13:12 55.00479 38.09164 28775 ft 502 kts 133°
2026-05-01 13:12 54.98013 38.13564 29171 ft 504 kts 133°
2026-05-01 13:13 54.95563 38.17933 29557 ft 507 kts 133°
2026-05-01 13:13 54.93088 38.22343 30021 ft 508 kts 133°
2026-05-01 13:13 54.90649 38.26684 30534 ft 507 kts 133°
2026-05-01 13:13 54.88192 38.31054 31072 ft 505 kts 133°
2026-05-01 13:14 54.85797 38.35569 31564 ft 503 kts 127°
2026-05-01 13:14 54.83813 38.40550 32036 ft 501 kts 118°
2026-05-01 13:14 54.82079 38.45812 32509 ft 500 kts 117°
2026-05-01 13:14 54.80397 38.51022 32990 ft 499 kts 117°
2026-05-01 13:15 54.78657 38.56281 33468 ft 499 kts 120°
2026-05-01 13:15 54.76578 38.61113 33899 ft 501 kts 129°
2026-05-01 13:15 54.74103 38.65338 34321 ft 502 kts 140°
2026-05-01 13:15 54.71268 38.68901 34751 ft 502 kts 147°
2026-05-01 13:16 54.68303 38.72057 35231 ft 500 kts 149°
2026-05-01 13:16 54.65306 38.75185 35706 ft 499 kts 149°
2026-05-01 13:16 54.62333 38.78277 36103 ft 498 kts 149°
2026-05-01 13:17 54.53450 38.87483 37087 ft 498 kts 149°
2026-05-01 13:17 54.50461 38.90570 37382 ft 498 kts 149°
2026-05-01 13:18 54.44531 38.96678 37876 ft 499 kts 148°
2026-05-01 13:18 54.41557 38.99765 38080 ft 500 kts 146°
2026-05-01 13:18 54.38801 39.03354 38252 ft 500 kts 136°
2026-05-01 13:18 54.36357 39.07672 38423 ft 499 kts 127°
2026-05-01 13:19 54.34355 39.12499 38638 ft 496 kts 118°
2026-05-01 13:19 54.32812 39.17733 38859 ft 491 kts 108°
2026-05-01 13:19 54.30924 39.28842 39237 ft 487 kts 101°
2026-05-01 13:20 54.29992 39.34419 39281 ft 489 kts 103°
2026-05-01 13:20 54.27838 39.45512 39289 ft 490 kts 106°
2026-05-01 13:21 54.24221 39.61853 39295 ft 490 kts 108°
2026-05-01 13:21 54.21666 39.72695 39293 ft 492 kts 109°
2026-05-01 13:22 54.19040 39.83556 39293 ft 491 kts 110°
2026-05-01 13:22 54.16413 39.94252 39294 ft 492 kts 110°
2026-05-01 13:23 54.13738 40.05025 39294 ft 491 kts 110°
2026-05-01 13:23 54.11229 40.15873 39167 ft 487 kts 107°
2026-05-01 13:24 54.10287 40.21290 39130 ft 474 kts 106°
2026-05-01 13:24 54.09368 40.26659 39129 ft 467 kts 106°
2026-05-01 13:25 54.06599 40.42666 39132 ft 470 kts 106°
2026-05-01 13:25 54.04737 40.53315 39132 ft 470 kts 106°
2026-05-01 13:26 54.02861 40.63963 39132 ft 470 kts 106°
2026-05-01 13:26 54.00981 40.74567 39132 ft 470 kts 107°
2026-05-01 13:27 53.99084 40.85200 39132 ft 470 kts 107°
2026-05-01 13:27 53.96228 41.01087 39132 ft 470 kts 107°
2026-05-01 13:28 53.93532 41.17121 39132 ft 470 kts 105°
2026-05-01 13:29 53.90029 41.38461 39132 ft 470 kts 105°
2026-05-01 13:31 53.84695 41.70320 39132 ft 470 kts 106°
2026-05-01 13:32 53.80151 41.96890 39132 ft 470 kts 106°
2026-05-01 13:33 53.75549 42.23358 39132 ft 470 kts 106°
2026-05-01 13:34 53.71827 42.44490 39132 ft 470 kts 106°
2026-05-01 13:35 53.68350 42.59856 39128 ft 470 kts 122°
2026-05-01 13:35 53.64114 42.68232 39129 ft 470 kts 140°
2026-05-01 13:36 53.61487 42.71484 39130 ft 470 kts 149°
2026-05-01 13:36 53.52634 42.78474 39132 ft 470 kts 156°
2026-05-01 13:37 53.46640 42.82836 39132 ft 470 kts 157°
2026-05-01 13:37 53.40648 42.87162 39132 ft 470 kts 157°
2026-05-01 13:38 53.31650 42.93614 39132 ft 470 kts 157°
2026-05-01 13:39 53.25613 42.97919 39132 ft 470 kts 157°
2026-05-01 13:39 53.19620 43.02179 39132 ft 470 kts 157°
2026-05-01 13:40 53.13591 43.06449 39132 ft 470 kts 157°
2026-05-01 13:40 53.07620 43.10863 39132 ft 470 kts 155°
2026-05-01 13:41 53.01687 43.15289 39132 ft 470 kts 156°
2026-05-01 13:41 52.95714 43.19722 39132 ft 470 kts 156°
2026-05-01 13:42 52.89758 43.24125 39132 ft 470 kts 156°
2026-05-01 13:42 52.83807 43.28509 39132 ft 470 kts 156°
2026-05-01 13:43 52.77825 43.32901 39132 ft 470 kts 156°
2026-05-01 13:43 52.71851 43.37273 39132 ft 470 kts 156°
2026-05-01 13:44 52.65855 43.41648 39132 ft 470 kts 156°
2026-05-01 13:44 52.59889 43.45987 39132 ft 470 kts 156°
2026-05-01 13:45 52.53933 43.50306 39132 ft 470 kts 156°
2026-05-01 13:45 52.47953 43.54630 39132 ft 470 kts 156°
2026-05-01 13:46 52.41980 43.58935 39132 ft 470 kts 156°
2026-05-01 13:46 52.35980 43.63248 39132 ft 470 kts 156°
2026-05-01 13:47 52.30022 43.67518 39132 ft 470 kts 156°
2026-05-01 13:47 52.24018 43.71807 39132 ft 470 kts 156°
2026-05-01 13:48 52.18065 43.76048 39132 ft 470 kts 156°
2026-05-01 13:48 52.12027 43.80337 39132 ft 470 kts 156°
2026-05-01 13:49 52.06042 43.84575 39132 ft 470 kts 156°
2026-05-01 13:49 52.00019 43.88828 39132 ft 470 kts 156°
2026-05-01 13:50 51.94033 43.93042 39132 ft 470 kts 156°
2026-05-01 13:50 51.88030 43.97256 39132 ft 470 kts 156°
2026-05-01 13:51 51.82024 44.01459 39132 ft 470 kts 156°
2026-05-01 13:51 51.76027 44.05645 39132 ft 470 kts 156°
2026-05-01 13:52 51.70024 44.09823 39132 ft 470 kts 156°
2026-05-01 13:52 51.63996 44.14005 39132 ft 470 kts 156°
2026-05-01 13:53 51.57960 44.18180 39132 ft 470 kts 156°
2026-05-01 13:53 51.48969 44.24379 39132 ft 470 kts 156°
2026-05-01 13:54 51.42944 44.28517 39132 ft 470 kts 156°
2026-05-01 13:54 51.36910 44.32650 39132 ft 470 kts 156°
2026-05-01 13:55 51.30918 44.36742 39132 ft 470 kts 156°
2026-05-01 13:55 51.24888 44.40848 39132 ft 470 kts 156°
2026-05-01 13:56 51.18841 44.44777 39128 ft 470 kts 163°
2026-05-01 13:56 51.12420 44.46339 39128 ft 470 kts 180°
2026-05-01 13:57 51.07017 44.45984 39132 ft 470 kts 182°
2026-05-01 13:57 50.99371 44.45317 39132 ft 470 kts 183°
2026-05-01 13:58 50.92849 44.44728 39132 ft 470 kts 183°
2026-05-01 13:58 50.86367 44.44134 39132 ft 470 kts 183°
2026-05-01 13:59 50.79836 44.43533 39132 ft 470 kts 183°
2026-05-01 13:59 50.73325 44.42933 39132 ft 470 kts 183°
2026-05-01 14:00 50.66772 44.42329 39132 ft 470 kts 183°
2026-05-01 14:00 50.60374 44.41740 39132 ft 470 kts 183°
2026-05-01 14:01 50.53920 44.41148 39132 ft 469 kts 183°
2026-05-01 14:01 50.47377 44.40548 39132 ft 469 kts 183°
2026-05-01 14:02 50.40868 44.39953 39132 ft 469 kts 183°
2026-05-01 14:02 50.34335 44.39358 39132 ft 469 kts 183°
2026-05-01 14:03 50.27819 44.38766 39132 ft 469 kts 183°
2026-05-01 14:03 50.21297 44.38174 39132 ft 469 kts 183°
2026-05-01 14:04 50.14783 44.37585 39132 ft 469 kts 183°
2026-05-01 14:04 50.09391 44.37100 39132 ft 469 kts 183°
2026-05-01 14:05 50.01766 44.36414 39132 ft 469 kts 183°
2026-05-01 14:05 49.95287 44.35833 39132 ft 469 kts 183°
2026-05-01 14:06 49.88799 44.35252 39132 ft 469 kts 183°
2026-05-01 14:06 49.82272 44.34670 39132 ft 469 kts 183°
2026-05-01 14:07 49.75755 44.34091 39132 ft 469 kts 183°
2026-05-01 14:08 49.65978 44.33224 39132 ft 469 kts 183°
2026-05-01 14:08 49.59474 44.32844 39129 ft 469 kts 176°
2026-05-01 14:09 49.53060 44.34902 39131 ft 469 kts 159°
2026-05-01 14:09 49.47032 44.38669 39132 ft 469 kts 157°
2026-05-01 14:10 49.40973 44.42518 39132 ft 469 kts 157°
2026-05-01 14:10 49.34925 44.46351 39132 ft 469 kts 157°
2026-05-01 14:11 49.28922 44.50146 39132 ft 469 kts 157°
2026-05-01 14:11 49.19893 44.55834 39132 ft 469 kts 157°
2026-05-01 14:12 49.13838 44.59637 39132 ft 469 kts 157°
2026-05-01 14:12 49.07817 44.63408 39132 ft 469 kts 157°
2026-05-01 14:13 49.02828 44.66524 39132 ft 469 kts 158°
2026-05-01 14:13 48.95775 44.70920 39132 ft 469 kts 158°
2026-05-01 14:14 48.89760 44.74657 39132 ft 469 kts 158°
2026-05-01 14:14 48.83802 44.78689 39129 ft 469 kts 149°
2026-05-01 14:15 48.78525 44.84522 39132 ft 469 kts 142°
2026-05-01 14:15 48.73373 44.90646 39132 ft 469 kts 142°
2026-05-01 14:16 48.68249 44.96716 39132 ft 469 kts 142°
2026-05-01 14:16 48.63116 45.02774 39132 ft 469 kts 142°
2026-05-01 14:17 48.57958 45.08844 39132 ft 469 kts 142°
2026-05-01 14:17 48.52809 45.14885 39132 ft 469 kts 142°
2026-05-01 14:18 48.47648 45.20923 39132 ft 469 kts 142°
2026-05-01 14:18 48.43352 45.25937 39132 ft 469 kts 142°
2026-05-01 14:19 48.36910 45.32018 39134 ft 469 kts 153°
2026-05-01 14:19 48.31021 45.36366 39132 ft 469 kts 154°
2026-05-01 14:20 48.22278 45.42783 39132 ft 469 kts 154°
2026-05-01 14:21 48.16367 45.47108 39132 ft 469 kts 154°
2026-05-01 14:21 48.10489 45.51398 39132 ft 469 kts 154°
2026-05-01 14:22 48.01722 45.57776 39132 ft 469 kts 154°
2026-05-01 14:22 47.95868 45.62022 39132 ft 469 kts 154°
2026-05-01 14:23 47.89993 45.66272 39132 ft 469 kts 154°
2026-05-01 14:23 47.84192 45.70458 39132 ft 469 kts 154°
2026-05-01 14:24 47.78305 45.74696 39132 ft 469 kts 154°
2026-05-01 14:24 47.72445 45.78903 39132 ft 469 kts 154°
2026-05-01 14:25 47.66548 45.83126 39132 ft 469 kts 154°
2026-05-01 14:25 47.60682 45.87316 39132 ft 469 kts 154°
2026-05-01 14:26 47.51843 45.93611 39132 ft 469 kts 154°
2026-05-01 14:27 47.45983 45.97770 39132 ft 469 kts 154°
2026-05-01 14:27 47.40076 46.01953 39132 ft 469 kts 154°
2026-05-01 14:28 47.31259 46.08178 39132 ft 469 kts 154°
2026-05-01 14:28 47.25373 46.12320 39132 ft 469 kts 154°
2026-05-01 14:29 47.19492 46.16449 39132 ft 469 kts 154°
2026-05-01 14:30 47.07784 46.24955 39129 ft 469 kts 146°
2026-05-01 14:31 47.01085 46.35164 39133 ft 469 kts 122°
2026-05-01 14:31 46.97591 46.43264 39132 ft 469 kts 122°
2026-05-01 14:32 46.94099 46.51337 39132 ft 469 kts 122°
2026-05-01 14:32 46.90599 46.59374 39132 ft 469 kts 122°
2026-05-01 14:33 46.87105 46.67360 39132 ft 469 kts 123°
2026-05-01 14:33 46.83571 46.75407 39132 ft 469 kts 123°
2026-05-01 14:34 46.80016 46.83474 39132 ft 469 kts 123°
2026-05-01 14:34 46.76484 46.91464 39132 ft 469 kts 123°
2026-05-01 14:35 46.72948 46.99439 39132 ft 469 kts 123°
2026-05-01 14:35 46.69389 47.07442 39132 ft 469 kts 123°
2026-05-01 14:36 46.65907 47.15427 39132 ft 469 kts 122°
2026-05-01 14:36 46.62405 47.23473 39132 ft 469 kts 122°
2026-05-01 14:37 46.58892 47.31515 39132 ft 469 kts 122°
2026-05-01 14:37 46.55391 47.39502 39132 ft 469 kts 122°
2026-05-01 14:38 46.51887 47.47471 39132 ft 469 kts 122°
2026-05-01 14:38 46.48373 47.55438 39132 ft 469 kts 122°
2026-05-01 14:39 46.44843 47.63417 39132 ft 469 kts 122°
2026-05-01 14:39 46.41302 47.71399 39132 ft 469 kts 123°
2026-05-01 14:40 46.37756 47.79372 39132 ft 469 kts 123°
2026-05-01 14:40 46.34226 47.87283 39132 ft 469 kts 123°
2026-05-01 14:41 46.30675 47.95218 39132 ft 469 kts 123°
2026-05-01 14:41 46.27775 48.03683 39128 ft 469 kts 107°
2026-05-01 14:42 46.26271 48.12845 39132 ft 469 kts 102°
2026-05-01 14:42 46.24879 48.22062 39132 ft 469 kts 102°
2026-05-01 14:43 46.23466 48.31314 39132 ft 469 kts 102°
2026-05-01 14:43 46.21796 48.40381 39131 ft 469 kts 112°
2026-05-01 14:44 46.18505 48.48472 39130 ft 469 kts 129°
2026-05-01 14:44 46.13649 48.54767 39129 ft 469 kts 147°
2026-05-01 14:44 46.10835 48.56994 39129 ft 469 kts 156°
2026-05-01 14:45 46.01298 48.59755 39133 ft 469 kts 179°
2026-05-01 14:46 45.94778 48.59704 39132 ft 469 kts 180°
2026-05-01 14:46 45.84990 48.59578 39132 ft 469 kts 180°
2026-05-01 14:47 45.78439 48.59488 39132 ft 469 kts 180°
2026-05-01 14:48 45.68659 48.59349 39132 ft 469 kts 180°
2026-05-01 14:48 45.58884 48.59210 39132 ft 469 kts 180°
2026-05-01 14:49 45.45814 48.59024 39132 ft 469 kts 180°
2026-05-01 14:50 45.32742 48.58837 39132 ft 469 kts 180°
2026-05-01 14:51 45.22942 48.58698 39132 ft 469 kts 180°
2026-05-01 14:52 45.13139 48.58560 39132 ft 469 kts 180°
2026-05-01 14:53 45.03346 48.58422 39132 ft 469 kts 180°
2026-05-01 14:53 44.96856 48.58330 39132 ft 469 kts 180°
2026-05-01 14:54 44.90334 48.58239 39132 ft 469 kts 180°
2026-05-01 14:54 44.83834 48.58148 39132 ft 469 kts 180°
2026-05-01 14:55 44.77301 48.58057 39132 ft 469 kts 180°
2026-05-01 14:55 44.70798 48.57966 39132 ft 469 kts 180°
2026-05-01 14:56 44.64262 48.57875 39132 ft 469 kts 180°
2026-05-01 14:56 44.57777 48.57785 39132 ft 469 kts 180°
2026-05-01 14:57 44.51265 48.57695 39132 ft 469 kts 180°
2026-05-01 14:57 44.41636 48.57562 39132 ft 469 kts 180°
2026-05-01 14:58 44.35119 48.57473 39132 ft 469 kts 180°
2026-05-01 14:58 44.28599 48.57383 39132 ft 469 kts 180°
2026-05-01 14:59 44.22093 48.57294 39132 ft 469 kts 180°
2026-05-01 14:59 44.15590 48.57205 39132 ft 469 kts 180°
2026-05-01 15:00 44.05753 48.57070 39132 ft 469 kts 180°
2026-05-01 15:01 43.99235 48.56982 39132 ft 469 kts 180°
2026-05-01 15:01 43.92704 48.56873 39129 ft 469 kts 182°
2026-05-01 15:02 43.86350 48.55102 39128 ft 469 kts 200°
2026-05-01 15:02 43.80651 48.50732 39129 ft 469 kts 218°
2026-05-01 15:03 43.76194 48.44218 39129 ft 469 kts 236°
2026-05-01 15:03 43.73349 48.36108 39130 ft 469 kts 253°
2026-05-01 15:04 43.72054 48.27283 39132 ft 469 kts 260°
2026-05-01 15:04 43.70930 48.18334 39132 ft 469 kts 260°
2026-05-01 15:05 43.69791 48.09472 39132 ft 469 kts 259°
2026-05-01 15:05 43.68629 48.00568 39132 ft 469 kts 259°
2026-05-01 15:06 43.67459 47.91711 39132 ft 469 kts 259°
2026-05-01 15:06 43.66281 47.82858 39132 ft 469 kts 259°
2026-05-01 15:07 43.65090 47.73982 39132 ft 469 kts 259°
2026-05-01 15:07 43.63894 47.65128 39132 ft 469 kts 259°
2026-05-01 15:08 43.62686 47.56240 39132 ft 469 kts 259°
2026-05-01 15:08 43.61538 47.47658 39129 ft 468 kts 263°
2026-05-01 15:09 43.60825 47.38717 39132 ft 469 kts 264°
2026-05-01 15:09 43.60135 47.29942 39132 ft 469 kts 263°
2026-05-01 15:10 43.59403 47.20956 39132 ft 469 kts 263°
2026-05-01 15:10 43.58281 47.07541 39132 ft 469 kts 263°
2026-05-01 15:11 43.57135 46.94151 39132 ft 469 kts 263°
2026-05-01 15:12 43.56358 46.85195 39132 ft 469 kts 263°
2026-05-01 15:12 43.55181 46.71798 39132 ft 469 kts 263°
2026-05-01 15:14 43.53184 46.49499 39132 ft 469 kts 263°
2026-05-01 15:14 43.51961 46.36089 39132 ft 469 kts 263°
2026-05-01 15:15 43.50306 46.18214 39132 ft 469 kts 262°
2026-05-01 15:16 43.49249 46.00357 39132 ft 469 kts 276°
2026-05-01 15:18 43.51121 45.78014 39132 ft 469 kts 276°
2026-05-01 15:19 43.52579 45.60145 39132 ft 469 kts 276°
2026-05-01 15:19 43.53654 45.46679 39132 ft 469 kts 276°
2026-05-01 15:20 43.54702 45.33343 39132 ft 469 kts 276°
2026-05-01 15:21 43.55398 45.24375 39132 ft 469 kts 276°
2026-05-01 15:21 43.56085 45.15420 39132 ft 469 kts 276°
2026-05-01 15:22 43.57101 45.02006 39132 ft 469 kts 276°
2026-05-01 15:22 43.57769 44.93070 39132 ft 469 kts 276°
2026-05-01 15:23 43.58432 44.84099 39132 ft 469 kts 276°
2026-05-01 15:23 43.59090 44.75090 39132 ft 469 kts 276°
2026-05-01 15:24 43.59739 44.66122 39132 ft 469 kts 276°
2026-05-01 15:24 43.59922 44.63582 39132 ft 469 kts 276°